Tampa, FL

4:49 PM EST on December 05, 2016 (GMT -0500)
Tampa International

Weather History for KTPA - October, 2011

Change the Weather History Date:

Sunday, October 30, 2011

  Actual Average Record
Temperature  
Mean Temperature 69 °F 73 °F  
Max Temperature 81 °F 81 °F 91 °F (2009)
Min Temperature 56 °F 64 °F 41 °F (1963)
Degree Days  
Heating Degree Days 0 0  
Month to date heating degree days 1 0  
Since 1 July heating degree days 1 0  
Cooling Degree Days 4 8  
Month to date cooling degree days 275 342  
Year to date cooling degree days 3683 3358  
Growing Degree Days 17 (Base 50)    
Moisture  
Dew Point 55 °F    
Average Humidity 64    
Maximum Humidity 77    
Minimum Humidity 50    
Precipitation  
Precipitation 0.10 in 0.05 in 1.35 in (1894)
Month to date precipitation 2.28 2.21  
Year to date precipitation 50.90 42.23  
Sea Level Pressure  
Sea Level Pressure 30.06 in    
Wind  
Wind Speed 9 mph (NE)    
Max Wind Speed 16 mph    
Max Gust Speed 23 mph    
Visibility 10 miles    
Events Rain    
T = Trace of Precipitation, MM = Missing Value Source: NWS Daily Summary

Daily Weather History Graph

Daily Weather History Graph

Search for Another Location

Airport or City:

Trip Planner

Search our weather history database for the weather conditions in past years. The results will help you decide how hot, cold, wet, or windy it might be!

Date:

Astronomy

Oct. 30, 2011 Rise Set
Actual Time 7:39 AM EDT 6:47 PM EDT
Civil Twilight 7:15 AM EDT 7:11 PM EDT
Nautical Twilight 6:47 AM EDT 7:39 PM EDT
Astronomical Twilight 6:20 AM EDT 8:06 PM EDT
Moon 11:43 AM EDT (10/30) 10:28 PM EDT (10/30)
Length of Visible Light 11h 55m
Length of Day
11h 07m
Waxing Crescent, 20% of the Moon is Illuminated
Oct 30
Waxing Crescent
Nov 2
First Quarter
Nov 10
Full
Nov 18
Last Quarter
Nov 25
New

Hourly Weather History & Observations

Time (EDT) Temp. Dew Point Humidity Pressure Visibility Wind Dir Wind Speed Gust Speed Precip Events Conditions
12:53 AM 66.0 °F 57.0 °F 73% 30.04 in 10.0 mi NNE 9.2 mph - N/A   Overcast
1:35 AM 66.2 °F 53.6 °F 64% 30.04 in 10.0 mi NE 12.7 mph 21.9 mph N/A   Overcast
1:53 AM 64.9 °F 54.0 °F 68% 30.04 in 10.0 mi NNE 8.1 mph 18.4 mph N/A   Mostly Cloudy
2:53 AM 61.0 °F 51.1 °F 70% 30.04 in 10.0 mi NNE 13.8 mph 19.6 mph N/A   Partly Cloudy
3:53 AM 59.0 °F 48.0 °F 67% 30.03 in 10.0 mi NNE 11.5 mph - N/A   Clear
4:53 AM 57.0 °F 48.0 °F 72% 30.02 in 10.0 mi NNE 9.2 mph - N/A   Clear
5:53 AM 57.2 °F 48.2 °F 72% 30.03 in 10.0 mi NNE 9.2 mph - N/A   Clear
6:53 AM 55.9 °F 48.0 °F 75% 30.04 in 10.0 mi NNE 6.9 mph - N/A   Clear
7:53 AM 55.9 °F 48.0 °F 75% 30.07 in 10.0 mi NNE 8.1 mph - N/A   Partly Cloudy
8:53 AM 59.0 °F 50.0 °F 72% 30.08 in 10.0 mi NE 10.4 mph 17.3 mph N/A   Mostly Cloudy
9:53 AM 63.0 °F 52.0 °F 67% 30.09 in 10.0 mi NE 8.1 mph 18.4 mph N/A   Mostly Cloudy
10:53 AM 69.1 °F 54.0 °F 58% 30.10 in 10.0 mi ENE 9.2 mph 17.3 mph N/A   Partly Cloudy
11:53 AM 73.9 °F 55.9 °F 53% 30.09 in 10.0 mi ENE 12.7 mph 23.0 mph N/A   Partly Cloudy
12:53 PM 77.0 °F 57.0 °F 50% 30.07 in 10.0 mi NE 9.2 mph 20.7 mph N/A   Mostly Cloudy
1:53 PM 79.0 °F 59.0 °F 50% 30.05 in 10.0 mi ENE 9.2 mph 19.6 mph N/A   Mostly Cloudy
2:53 PM 79.0 °F 60.1 °F 52% 30.04 in 10.0 mi ENE 9.2 mph 19.6 mph N/A   Mostly Cloudy
3:53 PM 79.0 °F 60.1 °F 52% 30.03 in 10.0 mi ESE 12.7 mph 19.6 mph N/A   Mostly Cloudy
4:53 PM 77.0 °F 59.0 °F 54% 30.04 in 10.0 mi ENE 9.2 mph 19.6 mph N/A   Overcast
5:53 PM 75.9 °F 59.0 °F 56% 30.05 in 10.0 mi ENE 8.1 mph 18.4 mph N/A   Overcast
6:53 PM 75.2 °F 57.2 °F 53% 30.05 in 10.0 mi ENE 8.1 mph - N/A   Overcast
7:53 PM 73.9 °F 59.0 °F 59% 30.06 in 10.0 mi ENE 8.1 mph - N/A   Overcast
8:53 PM 72.0 °F 59.0 °F 64% 30.08 in 10.0 mi NE 8.1 mph - N/A   Mostly Cloudy
9:53 PM 71.1 °F 57.9 °F 63% 30.08 in 10.0 mi NE 8.1 mph - N/A   Mostly Cloudy
10:53 PM 71.1 °F 59.0 °F 66% 30.09 in 10.0 mi NE 8.1 mph - N/A   Overcast
11:53 PM 66.9 °F 62.1 °F 84% 30.10 in 4.0 mi East 8.1 mph - 0.04 in Rain Light Rain